www.pogodaiklimat.ru

Погода и климат >> Архив погоды >> Пакистан >> Навабшах


ПОГОДА в Навабшахе

  • Прогноз погоды в Навабшахе
  • Монитор погоды в Навабшахе

АРХИВ ПОГОДЫ в Навабшахе

Время (UTC), дата Ветер
(напр.,м/с)
 
Видим.   Явления Облачность Т
(С)
Тd
(С)
f
(%)
Тe
(С)
Тes
(С)
Комфортность P
(гПа)
Po
(гПа)
Тmin
(С)
Tmax
(С)
R
(мм)
R24
(мм)
S
(см)
15 18.06 ЮВ 2 4000 м мгла 3/0
[Ac trans]
+35.0 +25.3 57 +49 +49 опасность
перегрева
996.0 1000.0
18 18.06 ЮВ 4 4000 м мгла ясно +33.0 +24.6 61 +46 +46 опасность
перегрева
996.9 993.7
21 18.06 ЮВ 2 4000 м мгла ясно +31.0 +24.6 69 +44 +44 опасность
перегрева
995.9 1000.0
00 19.06 ЮВ 1 4000 м мгла ясно +29.5 +24.5 75 +42 +42 опасность
перегрева
994.8 991.6
03 19.06 ЮВ 4 4000 м мгла 3/0
[Ac trans]
+31.0 +26.1 75 +46 +49 опасность
перегрева
997.6 994.4 +28.5
06 19.06 ЮВ 5 4000 м 5/3 1050 м
[Sc Ac trans]
+36.0 +26.2 57 +52 +58 опасность
перегрева
1000.4 997.2
09 19.06 ЮВ 3 4000 м ясно +40.0 +24.8 42 +52 +69 опасность
перегрева
998.7 1000.0
12 19.06 ЮВ 2 4000 м ясно +40.5 +24.6 41 +52 +58 опасность
перегрева
997.1 993.9 +41.5
15 19.06 ЮВ 3 4000 м мгла 5/0 1050 м
[Ac trans]
+36.0 +24.9 53 +49 +49 опасность
перегрева
998.1 1000.0
18 19.06 ЮВ 4 4000 м мгла ясно +32.5 +25.5 67 +47 +47 опасность
перегрева
999.1 995.8
21 19.06 ЮВ 2 4000 м мгла ясно +30.0 +25.1 75 +43 +43 опасность
перегрева
998.2 1000.0
00 20.06 Ю 2 4000 м мгла ясно +29.0 +25.5 81 +43 +43 опасность
перегрева
998.2 994.4
03 20.06 ЮВ 3 4000 м мгла ясно +31.0 +25.4 72 +45 +50 опасность
перегрева
999.3 996.1 +28.0
06 20.06 Ю 4 4000 м мгла 4/0
[Ci fib]
+37.0 +24.4 49 +49 +63 опасность
перегрева
1001.6 998.4
09 20.06 Ю 4 4000 м мгла ясно +40.5 +23.7 39 +51 +65 опасность
перегрева
1000.0 1000.0
12 20.06 ЮВ 3 4000 м мгла 3/0
[Ac trans]
+40.5 +24.6 41 +52 +56 опасность
перегрева
997.7 994.7 +42.5
15 20.06 ЮВ 4 4000 м мгла 5/1 1050 м
[Sc Ac trans]
+36.0 +24.0 50 +47 +47 опасность
перегрева
997.0 1000.0
18 20.06 ЮВ 3 4000 м мгла ясно +33.0 +24.6 61 +46 +46 опасность
перегрева
999.5 996.3
21 20.06 Ю 2 4000 м мгла ясно +31.0 +24.6 69 +44 +44 опасность
перегрева
998.5 1000.0
00 21.06 ЮВ 3 4000 м мгла ясно +30.0 +25.1 75 +43 +43 опасность
перегрева
998.6 995.4
03 21.06 ЮВ 2 4000 м мгла ясно +31.5 +26.0 73 +47 +53 опасность
перегрева
1001.4 998.2 +29.1
06 21.06 ЮВ 3 4000 м мгла ясно +37.0 +25.2 51 +51 +68 опасность
перегрева
1002.6 999.4
09 21.06 ЮВ 2 4000 м 3/0
[Ac trans]
+40.5 +23.7 39 +51 +67 опасность
перегрева
1001.0 1000.0
12 21.06 ЮВ 3 4000 м мгла ясно +39.5 +26.6 48 +55 +60 опасность
перегрева
997.8 994.7 +42.1
15 21.06 ЮВ 2 4000 м мгла 8/4 300 м
[Sc Ac trans]
+37.0 +24.4 49 +49 +49 опасность
перегрева
998.9 1000.0
18 21.06 ЮВ 2 4000 м мгла 8/4 1050 м
[Sc Ac trans]
+32.0 +21.8 55 +41 +41 опасность
перегрева
1000.5 997.3
21 21.06 Ю 1 4000 м мгла 6/3 1050 м
[Sc Ac trans]
+30.0 +22.8 65 +40 +40 очень
душно
999.9 1000.0
00 22.06 ЮВ 2 4000 м мгла 4/0
[Ac trans]
+29.0 +21.6 64 +37 +37 очень
душно
999.2 996.0
03 22.06 ЮВ 2 4000 м мгла 5/0
[Ac trans Ci fib]
+31.0 +23.1 63 +41 +46 опасность
перегрева
1000.9 997.7 +28.5
06 22.06 ЮВ 2 4000 м ясно +38.0 +24.0 45 +49 +70 опасность
перегрева
1002.0 998.8
09 22.06 ЮВ 2 4000 м ясно +41.5 +24.1 37 +52 +71 опасность
перегрева
1000.6 1000.0
12 22.06 ЮВ 3 4000 м ясно +42.0 +23.9 36 +52 +57 опасность
перегрева
998.5 995.4 +43.5
15 22.06 ЮВ 3 4000 м мгла ясно +36.5 +23.0 46 +46 +46 опасность
перегрева
999.3 1000.0
18 22.06 Ю 3 4000 м мгла ясно +33.0 +24.6 61 +46 +46 опасность
перегрева
1000.2 996.9
21 22.06 Ю 2 4000 м мгла ясно +31.0 +24.6 69 +44 +44 опасность
перегрева
999.5 1000.0
00 23.06 штиль 0 4000 м мгла ясно +30.0 +24.3 72 +42 +42 опасность
перегрева
998.9 995.6
03 23.06 ЮВ 2 4000 м ясно +33.0 +26.1 67 +49 +54 опасность
перегрева
999.5 996.2 +29.1
06 23.06 Ю 2 4000 м ясно +38.0 +25.6 49 +52 +71 опасность
перегрева
1000.8 997.6
09 23.06 ЮВ 3 4000 м ясно +42.5 +25.6 39 +56 +73 опасность
перегрева
998.6 1000.0
12 23.06 ЮВ 5 4000 м ясно +42.0 +23.9 36 +52 +55 опасность
перегрева
997.0 993.9 +44.0
15 23.06 ЮВ 3 4000 м мгла ясно +37.0 +24.4 49 +49 +49 опасность
перегрева
997.5 1000.0
18 23.06 ЮВ 3 4000 м мгла ясно +32.5 +23.2 58 +43 +43 опасность
перегрева
999.6 995.7
21 23.06 ЮВ 5 4000 м мгла ясно +30.0 +22.0 62 +39 +39 очень
душно
998.5 994.2
00 24.06 штиль 0 4000 м мгла ясно +29.0 +23.2 71 +39 +39 очень
душно
998.0 994.7
03 24.06 ЮВ 2 4000 м ясно +32.0 +23.4 60 +43 +49 опасность
перегрева
999.8 996.5 +28.5
06 24.06 Ю 2 4000 м ясно +38.0 +24.0 45 +49 +70 опасность
перегрева
1002.4 999.2
09 24.06 ЮВ 2 4000 м 5/3 1050 м
[Sc Ac trans]
+41.5 +23.3 36 +51 +63 опасность
перегрева
1000.6 1000.0
12 24.06 ЮВ 3 4000 м ясно +40.0 +23.1 38 +49 +53 опасность
перегрева
999.4 996.2 +42.5 0.0
15 24.06 ЮВ 2 4000 м ясно +37.0 +23.6 46 +47 +47 опасность
перегрева
1000.2 1000.0
18 24.06 ЮВ 2 4000 м мгла ясно +35.0 +23.7 52 +46 +46 опасность
перегрева
1000.9 997.6
21 24.06 ЮВ 2 4000 м мгла ясно +32.0 +22.6 58 +42 +42 опасность
перегрева
998.6 1000.0
00 25.06 ЮВ 2 4000 м мгла ясно +28.0 +21.6 68 +36 +36 очень
душно
997.1 993.9
03 25.06 ЮВ 1 4000 м мгла ясно +30.5 +21.7 59 +39 +45 очень
душно
999.6 996.3 +27.5
06 25.06 ЮВ 2 4000 м ясно +39.0 +24.4 44 +51 +72 опасность
перегрева
1003.0 999.8
09 25.06 ЮВ 2 4000 м 3/3 1050 м
[Sc]
+42.0 +24.8 38 +54 +67 опасность
перегрева
1001.0 1000.0
12 25.06 ЮВ 4 4000 м 6/3 1050 м
[Sc Ac trans]
+41.5 +25.0 40 +54 +56 опасность
перегрева
999.7 996.7 +43.0

 

Местоположение метеостанции Навабшах (Пакистан): широта 26.25 долгота 68.37 высота над уровнем моря 38 м.

В архиве по умолчанию представлена погода в Навабшахе за последнюю неделю. Архивные данные за месяц целиком и за предыдущие месяцы, начиная с января 2011 года, Вы можете получить, выбрав интересующий диапазон дат из раскрывающегося списка и нажав кнопку "Ввод!".


*Определитесь, кто Вы:
робот инопланетянин человек

Внимание! Время в таблицах - всемирное. Для получения местного времени необходимо прибавить поправку, которая равна 5 ч.

Смотрите также архив погоды в соседних городах и на ближайших метеорологических станциях:

Погода в Пад Идан (Пакистан) (71 км)
Погода в Хайдарабате (Пакистан) (97 км)
Погода в Мир Пур Кхас (Пакистан) (100 км)
Погода в Мохенджо-Даро (Пакистан) (121 км)
Погода в Сакранде (Пакистан) (125 км)
Погода в Ларкане (Пакистан) (146 км)
Погода в Чоре (Пакистан) (163 км)
Погода в Рохри (Пакистан) (166 км)
Погода в Суккуре (Пакистан) (167 км)
Погода в Даду (Пакистан) (170 км)

Пояснения к столбцам:

Ветер - указаны скорость ветра в м/с - средняя за 10 мин, порывы в срок и между сроками (в фигурных скобках) и направление, откуда дует ветер: С - северный, СВ - северо-восточный, В - восточный, ЮВ - юго-восточный, Ю - южный, ЮЗ - юго-западный, З - западный, СЗ - северо-западный.
Видимость - горизонтальная дальность видимости в метрах или километрах. При видимости от 1 до 10 км при отсутствии осадков обычно наблюдается дымка, при ухудшении видимости до 1 км и менее - туман. В сухую погоду видимость может ухудшаться дымом, пылью или мглою.
Явления - указаны атмосферные явления, наблюдавшиеся в срок или в последний час перед сроком; фигурными скобками обозначены явления, наблюдавшиеся между сроками (за 1-3 часа до срока); квадратными скобками обозначены град или гололедные отложения с указанием их диаметра в мм.
Облачность - указаны через наклонную черту общая и нижняя облачность в баллах и высота нижней границы облаков в метрах; квадратными скобками обозначены формы облаков: Ci - перистые, Cs - перисто-слоистые, Cc - перисто-кучевые, Ac - высококучевые, As - высокослоистые, Sc - слоисто-кучевые, Ns - слоисто-дождевые, Cu - кучевые, Cb - кучево-дождевые. Подробнее классификацию облаков см. в Атласе облаков (PDF).
T - Температура воздуха - температура, измеренная на высоте 2 м над землей.
Td - Температура точки росы - температура, при понижении до которой содержащийся в воздухе водяной пар достигнет насыщения.
f - Относительная влажность воздуха - влажноcть воздуха, измеренная на высоте 2 м над землей.
Te - Эффективная температура - температура, которую ощущает одетый по сезону человек в тени. Характеристика душности погоды. При расчете учитывается влияние влажности воздуха и скорости ветра на теплоощущения человека.
Tes - Эффективная температура на солнце - температура, которую ощущает человек, с поправкой на солнечный нагрев. Характеристика знойности погоды. Зависит от высоты солнца над горизонтом, облачности и скорости ветра. Ночью, в пасмурную погоду, а также при ветре 12 м/с и более поправка равна нулю.
P - Атмосферное давление - приведенное к уровню моря атмосферное давление.
Po - Атмосферное давление - измеренное на уровне метеостанции атмосферное давление.
Tmin - Минимальная температура - минимум температуры воздуха на высоте 2 м над землей.
Tmax - Максимальная температура - максимум температуры воздуха на высоте 2 м над землей.
R - Количество осадков - Количество выпавших осадков за период времени, мм. При наведении курсора мыши на число - период времени, за который выпало указанное количество осадков.
R24 - Количество осадков - Количество выпавших осадков за 24 часа, мм.
S - Снежный покров - Высота снежного покрова, см. При наведении курсора мыши на число - состояние снежного покрова и степень покрытия местности в баллах.